(218922) = 2007 TA361

Discovered at Mount Lemmon on 2007-10-14 by Mt. Lemmon Survey.

Orbit

Orbit type: Main Belt

Note: WebGL enabled browser required.

epoch2024-03-31.0
epoch JD2460400.5
perihelion date2023-07-10.04222
perihelion JD2460135.54222
argument of perihelion (°)288.07324
ascending node (°)185.68616
inclination (°)9.95894
eccentricity0.2160584
perihelion distance (AU)2.3084212
Tisserand w.r.t. Jupiter3.2
ΔV w.r.t. Earth (km/sec)10.0
semimajor axis (AU)2.9446342
mean anomaly (°)51.68131
mean daily motion (°/day)0.19505490
aphelion distance (AU)3.581
period (years)5.05
P-vector [x]-0.40147769
P-vector [y]0.89204162
P-vector [z]0.20755100
Q-vector [x]-0.91570850
Q-vector [y]-0.38672465
Q-vector [z]-0.10918787
absolute magnitude16.03
phase slope0.15
uncertainty0
referenceMPEC 2024-F14
observations used394
oppositions13
arc length (days)7801
first opposition used2002
last opposition used2024
residual rms (arc-secs)0.77
perturbers coarse indicatorM-v
perturbers precise indicator003Ek
first observation date used2002-11-07.0
last observation date used2024-03-17.0
computer nameMPCLINUX
JD of orbit computation2456847.724610
perihelion JD uncertainty (days)1.4742E-04
argument of perihelion uncertainty (°)4.8016E-05
ascending node uncertainty (°)3.4356E-05
inclination uncertainty (°)9.1519E-06
eccentricity uncertainty 4.8008E-08
perihelion distance uncertainty (AU)1.4057E-07
Minimum Orbit Intersection Distances (in AU)
for orbit epoch: 2460400.5, reference: E2024-GB3
Mercury2.00081
Venus1.6106
Earth1.34799
Mars0.75592
Jupiter1.66549
Saturn6.41575
Uranus15.751
Neptune26.6454

Observations

404 total observations over interval: 2002 11 07.38505 – 2024 03 17.524036
These data are available for download (format description).

Date (UT) J2000 RA J2000 Dec Magn Location Ref
2002 11 07.38505 04 38 37.37 +09 13 28.6 19.2 R 699 – Lowell Observatory-LONEOS MPS 233461
2002 11 07.40260 04 38 36.75 +09 13 22.6   699 – Lowell Observatory-LONEOS MPS 233461
2002 11 07.42019 04 38 36.13 +09 13 14.4   699 – Lowell Observatory-LONEOS MPS 233461
2002 11 07.43771 04 38 35.44 +09 13 08.7   699 – Lowell Observatory-LONEOS MPS 233461
2004 03 19.39169 14 05 59.19 -08 50 18.2 19.1 C 704 – Lincoln Laboratory ETS, New Mexico MPS 293235
2004 03 19.40247 14 05 58.88 -08 50 15.9 19.3 C 704 – Lincoln Laboratory ETS, New Mexico MPS 293235
2004 03 19.41348 14 05 58.58 -08 50 08.4 20.5 C 704 – Lincoln Laboratory ETS, New Mexico MPS 293235
2004 03 19.42470 14 05 58.23 -08 50 03.7 20.3 C 704 – Lincoln Laboratory ETS, New Mexico MPS 293235
2004 04 14.36861 13 49 02.38 -05 35 50.1 20.0 V 691 – Steward Observatory, Kitt Peak-Spacewatch MPS 233461
2004 04 14.39538 13 49 01.10 -05 35 37.7 19.9 V 691 – Steward Observatory, Kitt Peak-Spacewatch MPS 233461
2004 04 14.42345 13 48 59.77 -05 35 24.7 20.1 V 691 – Steward Observatory, Kitt Peak-Spacewatch MPS 233461
2006 08 29.19141 22 01 47.85 -03 37 35.6 21.0 V 691 – Steward Observatory, Kitt Peak-Spacewatch MPS 233461
2006 08 29.20876 22 01 47.04 -03 37 42.2 21.2 V 691 – Steward Observatory, Kitt Peak-Spacewatch MPS 233461
2006 08 29.22612 22 01 46.25 -03 37 48.5 21.2 V 691 – Steward Observatory, Kitt Peak-Spacewatch MPS 233461
2007 10 14.39196 04 24 49.32 +11 32 20.2 19.4 V G96 – Mt. Lemmon Survey MPS 223831
2007 10 14.40756 04 24 49.24 +11 32 14.3 19.5 V G96 – Mt. Lemmon Survey MPS 223831
2007 10 14.41537 04 24 49.21 +11 32 11.4 19.3 V G96 – Mt. Lemmon Survey MPS 223831
2007 10 14.48425 04 24 48.92 +11 31 45.6 19.4 V G96 – Mt. Lemmon Survey MPS 223831
2007 10 14.49390 04 24 48.88 +11 31 41.8 19.4 V G96 – Mt. Lemmon Survey MPS 223831
2007 10 14.50344 04 24 48.85 +11 31 38.3 19.4 V G96 – Mt. Lemmon Survey MPS 223831
2007 10 15.40601 04 24 46.00 +11 25 58.8 19.1 V G96 – Mt. Lemmon Survey MPS 223831
2007 10 15.41508 04 24 45.97 +11 25 55.3 19.3 V G96 – Mt. Lemmon Survey MPS 223831
2007 10 15.42416 04 24 45.90 +11 25 51.6 19.4 V G96 – Mt. Lemmon Survey MPS 223831
2007 11 02.48160 04 19 07.28 +09 23 40.6 19.3 V 703 – Catalina Sky Survey MPS 229107
2007 11 02.48825 04 19 07.03 +09 23 37.1 19.2 V 703 – Catalina Sky Survey MPS 229107
2007 11 02.49492 04 19 06.85 +09 23 33.6 18.7 V 703 – Catalina Sky Survey MPS 229107
2007 11 02.50155 04 19 06.63 +09 23 31.5 19.1 V 703 – Catalina Sky Survey MPS 229107
2007 11 09.32843 04 14 53.84 +08 36 05.6 18.7 V 703 – Catalina Sky Survey MPS 227019
2007 11 09.33674 04 14 53.48 +08 36 00.7 18.9 V 703 – Catalina Sky Survey MPS 227019
2007 11 09.34499 04 14 53.08 +08 35 57.9 18.9 V 703 – Catalina Sky Survey MPS 227019
2007 11 09.35323 04 14 52.80 +08 35 55.3 19.0 V 703 – Catalina Sky Survey MPS 227019
2007 11 11.25974 04 13 32.45 +08 22 57.4   704 – Lincoln Laboratory ETS, New Mexico MPS 407444
2007 11 11.27212 04 13 31.77 +08 22 53.8   704 – Lincoln Laboratory ETS, New Mexico MPS 407444
2007 11 11.29686 04 13 30.81 +08 22 43.8   704 – Lincoln Laboratory ETS, New Mexico MPS 407444
2007 11 11.30925 04 13 30.24 +08 22 38.1   704 – Lincoln Laboratory ETS, New Mexico MPS 407444
2007 11 13.30584 04 12 02.05 +08 09 16.9 18.9 V G96 – Mt. Lemmon Survey MPS 227019
2007 11 13.31514 04 12 01.62 +08 09 13.3 19.0 V G96 – Mt. Lemmon Survey MPS 227019
2007 11 13.32437 04 12 01.18 +08 09 09.5 19.0 V G96 – Mt. Lemmon Survey MPS 227019
2007 11 13.33369 04 12 00.72 +08 09 05.9 19.0 V G96 – Mt. Lemmon Survey MPS 227019
2007 11 15.26260 04 10 32.37 +07 56 29.7 18.4 V 703 – Catalina Sky Survey MPS 228344
2007 11 15.26914 04 10 31.98 +07 56 27.2 19.0 V 703 – Catalina Sky Survey MPS 228344
2007 11 15.27571 04 10 31.72 +07 56 24.1 18.5 V 703 – Catalina Sky Survey MPS 228344
2007 11 15.28220 04 10 31.40 +07 56 21.6 18.8 V 703 – Catalina Sky Survey MPS 228344
2007 11 19.28970 04 07 19.27 +07 31 12.6 18.7 V G96 – Mt. Lemmon Survey MPS 229107
2007 11 19.29677 04 07 18.87 +07 31 10.5 18.8 V G96 – Mt. Lemmon Survey MPS 229107
2007 11 19.30388 04 07 18.51 +07 31 07.9 18.7 V G96 – Mt. Lemmon Survey MPS 229107
2007 11 19.31091 04 07 18.19 +07 31 04.7 18.8 V G96 – Mt. Lemmon Survey MPS 229107
2007 12 05.22671 03 54 05.25 +06 11 57.1 19.1 V 703 – Catalina Sky Survey MPS 229902
2007 12 05.23319 03 54 04.89 +06 11 56.0 19.3 V 703 – Catalina Sky Survey MPS 229902
2007 12 05.23973 03 54 04.60 +06 11 54.4 19.1 V 703 – Catalina Sky Survey MPS 229902
2007 12 05.24624 03 54 04.28 +06 11 52.1 18.8 V 703 – Catalina Sky Survey MPS 229902
2007 12 18.19738 03 45 04.53 +05 41 16.8 18.9 V 703 – Catalina Sky Survey MPS 231835
2007 12 18.20397 03 45 04.32 +05 41 16.5 19.2 V 703 – Catalina Sky Survey MPS 231835
2007 12 18.21053 03 45 04.10 +05 41 15.8 19.2 V 703 – Catalina Sky Survey MPS 231835
2007 12 18.21710 03 45 03.85 +05 41 16.4 18.8 V 703 – Catalina Sky Survey MPS 231835
2009 01 30.49084 13 47 20.29 -10 52 29.7 21.2 V G96 – Mt. Lemmon Survey MPS 272722
2009 01 30.49686 13 47 20.50 -10 52 29.5 21.0 V G96 – Mt. Lemmon Survey MPS 272722
2009 01 30.50306 13 47 20.72 -10 52 30.4 20.8 V G96 – Mt. Lemmon Survey MPS 272722
2009 01 30.50906 13 47 20.94 -10 52 29.4 21.3 V G96 – Mt. Lemmon Survey MPS 272722
2009 03 19.33015 13 50 03.44 -08 06 12.1 20.2 V 691 – Steward Observatory, Kitt Peak-Spacewatch MPS 280223
2009 03 19.34775 13 50 02.88 -08 06 04.8 20.1 V 691 – Steward Observatory, Kitt Peak-Spacewatch MPS 280223
2009 03 19.36536 13 50 02.30 -08 05 57.3 20.4 V 691 – Steward Observatory, Kitt Peak-Spacewatch MPS 280223
2009 03 28.26679 13 44 47.79 -06 59 32.3 20.0 V 691 – Steward Observatory, Kitt Peak-Spacewatch MPS 282609
2009 03 28.28446 13 44 47.05 -06 59 23.8 20.3 V 691 – Steward Observatory, Kitt Peak-Spacewatch MPS 282609
2009 03 28.30214 13 44 46.33 -06 59 15.3 20.2 V 691 – Steward Observatory, Kitt Peak-Spacewatch MPS 282609
2009 03 31.26505 13 42 45.94 -06 35 54.7 20.2 V 691 – Steward Observatory, Kitt Peak-Spacewatch MPS 282609
2009 03 31.28276 13 42 45.18 -06 35 46.2 20.1 V 691 – Steward Observatory, Kitt Peak-Spacewatch MPS 282609
2009 03 31.30045 13 42 44.40 -06 35 38.0 20.1 V 691 – Steward Observatory, Kitt Peak-Spacewatch MPS 282609
2009 04 02.24506 13 41 22.26 -06 20 07.4 20.1 V 691 – Steward Observatory, Kitt Peak-Spacewatch MPS 282609
2009 04 02.26623 13 41 21.28 -06 19 56.9 19.9 V 691 – Steward Observatory, Kitt Peak-Spacewatch MPS 282609
2009 04 02.28392 13 41 20.52 -06 19 48.4 20.0 V 691 – Steward Observatory, Kitt Peak-Spacewatch MPS 282609
2009 04 21.31511 13 27 09.42 -03 51 16.8 19.3   704 – Lincoln Laboratory ETS, New Mexico MPS 284456
2009 04 21.32844 13 27 08.89 -03 51 09.8 19.8   704 – Lincoln Laboratory ETS, New Mexico MPS 284456
2009 04 21.33995 13 27 08.34 -03 51 06.2 20.0   704 – Lincoln Laboratory ETS, New Mexico MPS 284456
2009 04 21.35250 13 27 07.74 -03 51 00.5 19.7   704 – Lincoln Laboratory ETS, New Mexico MPS 284456
2009 04 24.20962 13 25 06.20 -03 30 54.9 19.8 V G96 – Mt. Lemmon Survey MPS 284456
2009 04 24.21647 13 25 05.95 -03 30 52.0 19.8 V G96 – Mt. Lemmon Survey MPS 284456
2009 04 24.22332 13 25 05.62 -03 30 49.1 20.0 V G96 – Mt. Lemmon Survey MPS 284456
2009 04 24.23012 13 25 05.34 -03 30 46.4 19.9 V G96 – Mt. Lemmon Survey MPS 284456
2009 04 28.24611 13 22 22.83 -03 04 16.2 20.3 V 703 – Catalina Sky Survey MPS 285717
2009 04 28.25410 13 22 22.54 -03 04 10.9 20.6 V 703 – Catalina Sky Survey MPS 285717
2009 04 28.26200 13 22 22.26 -03 04 08.3 19.8 V 703 – Catalina Sky Survey MPS 285717
2009 04 28.26992 13 22 21.97 -03 04 05.3 20.0 V 703 – Catalina Sky Survey MPS 285717
2012 10 20.543869 04 04 15.744 +10 21 38.10 19.9 w F51 – Pan-STARRS 1, Haleakala MPS 439224
2012 10 20.558298 04 04 15.373 +10 21 32.18 19.9 w F51 – Pan-STARRS 1, Haleakala MPS 439224
2012 10 20.572706 04 04 15.037 +10 21 26.13 19.8 w F51 – Pan-STARRS 1, Haleakala MPS 439224
2012 10 20.587125 04 04 14.713 +10 21 20.22 19.8 w F51 – Pan-STARRS 1, Haleakala MPS 439224
2012 11 10.28380 03 52 10.81 +07 54 27.8 18.8   704 – Lincoln Laboratory ETS, New Mexico MPS 443172
2012 11 10.29871 03 52 10.04 +07 54 22.2 19.4   704 – Lincoln Laboratory ETS, New Mexico MPS 443172
